User: anonymous   Login
Location: Innerarity Island Observatory
(30.3139°N, 87.4867°W)
Time: 23:17:16
(UTC-05:00)
Language:

OPAL - Orbit

View from above orbital plane
View from above orbital plane
View from above satellite
View from above satellite

Ground track
Ground track

The orbit data is extracted from the following two-line orbital elements,

1 26063U 00004C   15213.55588090  .00000033  00000-0  31018-4 0  9996
2 26063 100.2112 080.5885 0037274 082.0260 278.5148 14.36553659812947
Epoch (UTC): 01 August 2015 13:20:28
Eccentricity: 0.0037274
inclination: 100.2112°
perigee height: 743 km
apogee height: 796 km
right ascension of ascending node: 80.5885°
argument of perigee: 82.0260°
revolutions per day: 14.36553659
mean anomaly at epoch: 278.5148°
orbit number at epoch: 81294

The dashed part of the orbit path shows where the satellite is in the earth's shadow,  

DLR